[[{"header":{"parameterUnit":"m.s-1","parameterCategory":1,"la1":30.2991,"la2":30.254,"lo1":-89.0895,"lo2":-89.0444,"dy":0.0017,"dx":0.0017,"nx":28,"ny":28,"refTime":"2025-07-25T21:00:00:Z","depth":0,"parameterNumber":2,"parameterNumberName":"U-component_of_WINDS"},"data":[0,0,0,0,0,0,0,0,0,0,0,0,0,0,0,0,0,0,0,0,0,0,0,0,0,0,0,0,0,0,0,0,0,0,0,0,0,0,0,0,0,0,0,0,0,0,0,0,0,0,0,0,0,0,0,0,0,0,-0.9317,-0.9318,0,-0.9348,-0.9348,-0.9349,-0.9347,-0.9346,-0.9346,-0.9345,-0.9377,-0.9378,-0.938,0,0,0,0,0,0,0,0,0,0,0,0,0,-0.9258,-0.9259,-0.9317,-0.9318,-0.9318,-0.9348,-0.9348,-0.9349,-0.9347,-0.9346,-0.9346,-0.9345,-0.9377,-0.9378,-0.938,0,0,0,0,0,0,0,0,0,0,0,0,0,-0.9285,-0.9259,-0.9317,-0.9321,-0.9321,-0.9348,-0.9348,-0.9349,-0.9347,-0.9346,-0.9345,-0.9345,-0.9376,-0.9378,-0.938,-0.9405,0,0,-0.9386,-0.9387,0,0,0,0,0,0,0,0,-0.9284,-0.9288,-0.932,-0.932,-0.9321,-0.9343,-0.9339,-0.9368,-0.9347,-0.9337,-0.9345,-0.9345,-0.9366,-0.9369,-0.9376,-0.9407,-0.9408,-0.9386,-0.9387,-0.9388,-0.9389,0,0,0,0,0,0,0,-0.9282,-0.9286,-0.9329,-0.932,-0.9321,-0.9321,-0.9324,-0.9344,-0.9355,-0.9338,-0.9338,-0.9341,-0.9367,-0.9374,-0.9377,-0.9409,-0.9386,-0.9388,-0.9389,-0.939,-0.9462,-0.9463,0,0,0,0,0,0,-0.9279,-0.9285,-0.9328,-0.933,-0.93,-0.9322,-0.9326,-0.9336,-0.9355,-0.9357,-0.9342,-0.9341,-0.9372,-0.9375,-0.9378,-0.9409,-0.9388,-0.939,-0.9391,-0.9461,-0.9462,-0.9463,0,0,0,0,0,0,-0.9278,-0.9283,-0.9327,-0.9307,-0.9313,-0.9324,-0.9336,-0.9337,-0.9345,-0.9358,-0.936,-0.9348,-0.9371,-0.9375,-0.9399,-0.941,-0.9391,-0.9392,-0.946,-0.9461,-0.9463,-0.9472,0,0,0,0,0,0,-0.9276,-0.9283,-0.9292,-0.9308,-0.9314,-0.9347,-0.9337,-0.9339,-0.9349,-0.9348,-0.9364,-0.9366,-0.9371,-0.9396,-0.9401,-0.9413,-0.9394,-0.9459,-0.9461,-0.9462,-0.9471,-0.9473,-0.9476,0,0,0,0,0,-0.9274,-0.9294,-0.9293,-0.9298,-0.9326,-0.9348,-0.9351,-0.9356,-0.9349,-0.9359,-0.9368,-0.9366,-0.9408,-0.9398,-0.9404,-0.9416,-0.9459,-0.946,-0.9462,-0.947,-0.9473,-0.9475,0,0,0,0,0,0,-0.9279,-0.9296,-0.9295,-0.932,-0.9332,-0.9347,-0.936,-0.9359,-0.9374,-0.9373,-0.9378,-0.9382,-0.9406,-0.9413,-0.9402,-0.9442,-0.9433,-0.9435,-0.9436,-0.944,-0.9442,-0.944,-0.9395,0,0,0,0,0,-0.9283,-0.9299,-0.9313,-0.9334,-0.934,-0.9349,-0.9358,-0.9361,-0.9374,-0.938,-0.9389,-0.9402,-0.9419,-0.943,-0.9445,-0.9471,-0.9475,-0.9483,-0.9485,-0.9487,-0.949,-0.9505,-0.9509,-0.9469,-0.9469,-0.9469,0,0,-0.9292,-0.9303,-0.9313,-0.9335,-0.9345,-0.9362,-0.9353,-0.9371,-0.9384,-0.9382,-0.9405,-0.9413,-0.9428,-0.9453,-0.9464,-0.946,-0.9502,-0.949,-0.9491,-0.9493,-0.9507,-0.9511,-0.9514,-0.947,-0.947,-0.947,0,0,-0.9317,-0.9326,-0.9345,-0.9355,-0.937,-0.9376,-0.938,-0.9395,-0.9401,-0.9423,-0.9423,-0.9438,-0.9465,-0.9476,-0.9485,-0.9514,-0.9513,-0.9519,-0.9532,-0.9546,-0.955,-0.9552,-0.9563,-0.9567,-0.9521,-0.9521,-0.9521,0,-0.9326,-0.9351,-0.9355,-0.9373,-0.9383,-0.9382,-0.9401,-0.9411,-0.9431,-0.9438,-0.9432,-0.9467,-0.9477,-0.9505,-0.9512,-0.9519,-0.9525,-0.9517,-0.9549,-0.9552,-0.9554,-0.9565,-0.9569,-0.9522,-0.9522,-0.9522,-0.9522,0,-0.9361,-0.9379,-0.9392,-0.9411,-0.9422,-0.9441,-0.9448,-0.9459,-0.946,-0.9467,-0.949,-0.9502,-0.952,-0.9527,-0.9528,-0.9555,-0.9552,-0.9547,-0.9538,-0.9559,-0.9569,-0.9573,-0.9523,-0.9523,-0.9522,-0.9522,0,0,-0.9391,-0.9412,-0.9417,-0.9425,-0.9442,-0.9455,-0.9474,-0.9491,-0.9501,-0.9514,-0.953,-0.9554,-0.955,-0.956,-0.9563,-0.9576,-0.9598,-0.957,-0.9571,-0.9575,-0.9629,-0.9632,-0.9637,-0.9597,-0.9598,-0.9599,-0.9628,0,-0.9418,-0.9451,-0.9455,-0.9484,-0.95,-0.9499,-0.9516,-0.9528,-0.9534,-0.9549,-0.9556,-0.9573,-0.9566,-0.9572,-0.9585,-0.9593,-0.9609,-0.9591,-0.9613,-0.9614,-0.961,-0.9642,-0.9646,-0.9673,-0.9632,-0.9632,-0.9633,0,-0.9454,-0.9468,-0.9499,-0.9513,-0.952,-0.9535,-0.9551,-0.9565,-0.9579,-0.9583,-0.9594,-0.9595,-0.9615,-0.9604,-0.9631,-0.9618,-0.9628,-0.9633,-0.9634,-0.9637,-0.9625,-0.9646,-0.9681,-0.9685,-0.9639,-0.9638,-0.9638,0,-0.9473,-0.95,-0.9522,-0.9529,-0.9546,-0.9557,-0.9564,-0.9577,-0.9588,-0.9602,-0.9609,-0.9626,-0.9635,-0.9648,-0.9653,-0.9645,-0.968,-0.967,-0.9684,-0.9684,-0.9693,-0.9692,-0.973,-0.9697,-0.9697,-0.9697,-0.9697,0,-0.9503,-0.9523,-0.9531,-0.9545,-0.9566,-0.9571,-0.9592,-0.9599,-0.961,-0.9626,-0.9626,-0.964,-0.9646,-0.9662,-0.9666,-0.9688,-0.9692,-0.9696,-0.9697,-0.9696,-0.9696,-0.9703,-0.9702,-0.9698,-0.9698,-0.9698,-0.9698,0,-0.9529,-0.9536,-0.956,-0.9574,-0.9578,-0.9593,-0.9605,-0.9618,-0.9624,-0.9644,-0.9648,-0.9658,-0.9676,-0.9683,-0.9705,-0.9708,-0.9733,-0.9732,-0.9729,-0.9729,-0.9744,-0.9742,-0.9788,-0.9794,-0.9757,-0.9757,-0.9757,0,-0.9549,-0.9563,-0.9579,-0.9589,-0.9597,-0.9613,-0.9623,-0.9628,-0.9639,-0.9656,-0.9667,-0.9685,-0.97,-0.9728,-0.9737,-0.9754,-0.9754,-0.9769,-0.9757,-0.9756,-0.9755,-0.9755,-0.9757,-0.9772,-0.9772,-0.9772,-0.9773,0,-0.9582,-0.9585,-0.96,-0.9616,-0.9628,-0.9642,-0.9654,-0.9662,-0.9669,-0.9682,-0.97,-0.9711,-0.9733,-0.9751,-0.9769,-0.9777,-0.9776,-0.9776,-0.9781,-0.9781,-0.9778,-0.978,-0.9736,-0.9775,-0.9775,-0.9775,-0.9775,-0.9775,-0.9606,-0.9619,-0.9632,-0.9649,-0.9659,-0.9671,-0.9684,-0.9691,-0.9707,-0.9725,-0.9727,-0.9747,-0.976,-0.9783,-0.9792,-0.9807,-0.9803,-0.9809,-0.9811,-0.9813,-0.9814,-0.9775,-0.981,-0.981,-0.981,-0.981,-0.981,0,-0.9641,-0.9649,-0.9664,-0.9682,-0.9695,-0.9692,-0.9706,-0.9718,-0.9735,-0.9747,-0.9761,-0.9783,-0.98,-0.981,-0.9827,-0.9838,-0.9838,-0.9842,-0.9842,-0.9844,-0.9816,-0.9811,-0.9842,-0.9842,-0.9842,-0.9842,-0.9842,-0.9842,-0.966,-0.9682,-0.9686,-0.9713,-0.9721,-0.974,-0.9749,-0.976,-0.9769,-0.9793,-0.9807,-0.9813,-0.9825,-0.9843,-0.9859,-0.9861,-0.9868,-0.9873,-0.9875,-0.9849,-0.9846,-0.9843,-0.9838,-0.9874,-0.9874,-0.9901,-0.9902,-0.9902]},{"header":{"parameterUnit":"m.s-1","parameterCategory":1,"la1":30.2991,"la2":30.254,"lo1":-89.0895,"lo2":-89.0444,"dy":0.0017,"dx":0.0017,"nx":28,"ny":28,"refTime":"2025-07-25T21:00:00:Z","depth":0,"parameterNumber":3,"parameterNumberName":"V-component_of_WINDS"},"data":[0,0,0,0,0,0,0,0,0,0,0,0,0,0,0,0,0,0,0,0,0,0,0,0,0,0,0,0,0,0,0,0,0,0,0,0,0,0,0,0,0,0,0,0,0,0,0,0,0,0,0,0,0,0,0,0,0,0,6.1297,6.1299,0,6.1445,6.1447,6.1449,6.1396,6.1393,6.139,6.1387,6.1531,6.1538,6.1544,0,0,0,0,0,0,0,0,0,0,0,0,0,6.096,6.0966,6.1297,6.1299,6.1301,6.1445,6.1447,6.1449,6.1397,6.1393,6.1389,6.1385,6.1529,6.1537,6.1545,0,0,0,0,0,0,0,0,0,0,0,0,0,6.1107,6.0968,6.1297,6.1292,6.1293,6.1445,6.1447,6.145,6.1398,6.1393,6.1388,6.1383,6.1526,6.1536,6.1546,6.1708,0,0,6.1578,6.1582,0,0,0,0,0,0,0,0,6.1098,6.1119,6.1291,6.1293,6.1294,6.1397,6.1381,6.1536,6.1399,6.1358,6.1386,6.1381,6.149,6.1503,6.1541,6.1715,6.1721,6.1579,6.1585,6.1589,6.1592,0,0,0,0,0,0,0,6.1088,6.1112,6.1355,6.1294,6.1296,6.128,6.1295,6.141,6.1449,6.1361,6.1358,6.1376,6.149,6.1531,6.1544,6.1723,6.1578,6.1588,6.1594,6.1598,6.2033,6.2038,0,0,0,0,0,0,6.1078,6.1104,6.1351,6.136,6.1182,6.129,6.1307,6.1369,6.1448,6.1455,6.138,6.1373,6.1516,6.1532,6.1549,6.1742,6.1589,6.1599,6.1605,6.2028,6.2034,6.204,0,0,0,0,0,0,6.1071,6.1101,6.1345,6.1231,6.1261,6.1301,6.1371,6.1375,6.1416,6.1463,6.1469,6.1416,6.1513,6.1535,6.1669,6.1746,6.1604,6.1613,6.2022,6.203,6.2037,6.213,0,0,0,0,0,0,6.1062,6.1099,6.1163,6.1233,6.1267,6.1465,6.1376,6.1381,6.1435,6.1427,6.1498,6.1505,6.1511,6.1654,6.1679,6.1758,6.1621,6.2015,6.2025,6.2035,6.212,6.214,6.2157,0,0,0,0,0,6.105,6.1183,6.1167,6.1197,6.1349,6.147,6.1489,6.1495,6.1442,6.1505,6.1534,6.1503,6.1734,6.1668,6.1696,6.1779,6.201,6.2022,6.2034,6.2112,6.2136,6.2157,0,0,0,0,0,0,6.1119,6.1192,6.1175,6.1335,6.1397,6.1461,6.1541,6.1521,6.1598,6.1587,6.1589,6.1605,6.1743,6.1774,6.17,6.1938,6.1863,6.1882,6.1913,6.1936,6.1954,6.1943,6.163,0,0,0,0,0,6.1153,6.1248,6.1305,6.144,6.1472,6.1502,6.1554,6.1554,6.1617,6.1642,6.1681,6.1741,6.1827,6.1883,6.1965,6.2124,6.2137,6.2195,6.2213,6.2228,6.2243,6.2326,6.2352,6.208,6.208,6.2079,0,0,6.1224,6.1275,6.1334,6.1455,6.1503,6.1597,6.1524,6.1628,6.1697,6.1657,6.1786,6.1817,6.1883,6.203,6.2097,6.206,6.2321,6.2244,6.2255,6.2262,6.2341,6.2367,6.239,6.2088,6.2086,6.2085,0,0,6.1401,6.1451,6.1567,6.1617,6.1691,6.1709,6.1737,6.1804,6.1823,6.1953,6.1924,6.2005,6.2154,6.2202,6.2245,6.2438,6.241,6.2464,6.256,6.2641,6.2663,6.2681,6.2747,6.2771,6.2479,6.248,6.248,0,6.1479,6.1623,6.1629,6.1735,6.1787,6.1757,6.1873,6.192,6.2016,6.2051,6.201,6.2194,6.2237,6.2393,6.2439,6.2477,6.2506,6.2456,6.266,6.2679,6.2696,6.2759,6.2784,6.2485,6.2485,6.2484,6.2484,0,6.1713,6.1813,6.1898,6.1993,6.2055,6.2166,6.2185,6.2246,6.2239,6.2261,6.2391,6.2442,6.2532,6.2569,6.2563,6.2723,6.2698,6.2659,6.2583,6.2728,6.2787,6.2811,6.2494,6.2492,6.249,6.2489,0,0,6.1939,6.2035,6.2066,6.2107,6.2185,6.2261,6.2368,6.2458,6.2509,6.2575,6.2663,6.2788,6.2751,6.2801,6.28,6.2871,6.3016,6.2822,6.2823,6.2854,6.3192,6.322,6.3248,6.2999,6.3003,6.3007,6.3185,0,6.212,6.2312,6.2319,6.2492,6.2582,6.2553,6.2646,6.2702,6.2724,6.2801,6.2824,6.2913,6.2859,6.2888,6.2957,6.2984,6.3083,6.2971,6.3077,6.3081,6.306,6.3279,6.331,6.3476,6.3209,6.3213,6.3215,0,6.2358,6.2433,6.2616,6.2678,6.2716,6.28,6.2881,6.2957,6.3018,6.3029,6.3084,6.3071,6.3177,6.3099,6.3242,6.3166,6.3209,6.3228,6.3234,6.3243,6.3156,6.3292,6.353,6.3554,6.3252,6.3249,6.3247,0,6.2501,6.2648,6.2775,6.2812,6.2889,6.2947,6.2981,6.3038,6.3091,6.3161,6.3194,6.3275,6.3318,6.338,6.3388,6.3331,6.3531,6.3454,6.354,6.354,6.3582,6.3579,6.3828,6.3613,6.3613,6.3613,6.3612,0,6.2703,6.2815,6.284,6.2919,6.3042,6.3047,6.3168,6.3197,6.3247,6.3328,6.3307,6.3383,6.339,6.3467,6.3474,6.3589,6.361,6.3619,6.3619,6.362,6.3619,6.3647,6.3635,6.3619,6.3618,6.3616,6.3615,0,6.2883,6.2906,6.3042,6.3103,6.3121,6.3209,6.3259,6.3332,6.3352,6.3454,6.3478,6.3507,6.3596,6.3611,6.3715,6.3719,6.3857,6.3847,6.3838,6.3835,6.3919,6.391,6.4194,6.423,6.3993,6.3996,6.3998,0,6.301,6.3095,6.3166,6.3219,6.3257,6.3343,6.3397,6.3404,6.346,6.3535,6.3598,6.3685,6.3755,6.3898,6.3926,6.4005,6.3994,6.4088,6.4006,6.4003,6.3993,6.3987,6.3994,6.4104,6.4106,6.4109,6.411,0,6.3231,6.3237,6.3316,6.3399,6.3464,6.3529,6.359,6.3634,6.3649,6.3712,6.3804,6.3858,6.3964,6.405,6.4127,6.4159,6.4136,6.4136,6.4159,6.4161,6.4151,6.4155,6.3879,6.4129,6.4127,6.4126,6.4125,6.4124,6.3387,6.346,6.3521,6.3609,6.3656,6.3713,6.3784,6.3812,6.3889,6.3978,6.3976,6.4076,6.4131,6.4233,6.427,6.4345,6.4315,6.4349,6.4358,6.4366,6.4373,6.414,6.436,6.4359,6.4359,6.4358,6.4358,0,6.3604,6.3642,6.3723,6.3809,6.3878,6.3853,6.3918,6.3976,6.4065,6.4119,6.4189,6.4292,6.4374,6.4409,6.4489,6.4542,6.4533,6.4563,6.4558,6.4565,6.4397,6.4368,6.4568,6.4568,6.4568,6.4568,6.4568,6.4568,6.3726,6.3848,6.3861,6.4005,6.404,6.4139,6.4178,6.423,6.4273,6.439,6.4459,6.4482,6.4527,6.461,6.4683,6.469,6.4719,6.4753,6.4756,6.4598,6.4577,6.4557,6.4529,6.476,6.476,6.4917,6.4918,6.492]}]]